Temperature
16 16 16 16 16 15 15 15 15 15 15 15 15 15 15 15 15 15 15 15 15 15 15 15 15 15 15 15 15 15 15 15 15 15 15 15 15 15 15 15 15 15 15
16 16 16 15 15 15 15 15 15 15 15 15 15 15 15 15 15 15 15 15 15 15 15 15 15 15 15 15 15 15 15 15 15 15 15 15 15 14 14 14 14 15 15
16 15 15 15 15 15 15 15 15 15 15 15 15 15 15 15 15 15 15 15 15 15 15 14 14 14 14 14 14 14 14 14 14 14 14 14 14 14 14 14 14 14 14
16 15 15 15 15 15 15 15 15 15 15 15 15 15 15 14 14 14 14 14 14 14 14 14 14 14 14 14 14 14 14 14 14 14 14 14 14 14 14 14 14 14 14
16 15 15 15 15 15 15 15 15 15 15 15 15 14 14 14 14 14 14 14 14 14 14 14 14 14 14 14 14 14 14 14 14 14 14 14 14 14 14 14 14 14 14
15 15 15 15 15 15 15 15 14 14 14 14 14 14 14 14 14 14 14 14 14 14 14 14 14 14 14 14 13 14 14 13 13 13 13 14 14 14 14 14 13 13 13
15 15 15 15 15 15 15 14 14 14 14 14 14 14 14 14 14 13 13 13 13 13 13 13 13 13 13 13 13 13 13 13 13 13 13 13 13 13 13 13 13 13 13
15 15 15 15 15 15 14 14 14 14 14 14 14 13 13 13 13 13 13 13 13 13 13 13 13 13 13 13 13 13 13 13 13 13 13 13 13 13 13 13 13 13 13
15 15 15 15 15 15 14 14 14 14 14 14 14 13 13 13 13 13 13 13 13 13 13 13 13 13 13 13 13 13 13 13 13 13 13 13 13 13 13 13 13 13 13
15 15 15 15 15 14 14 14 14 14 13 13 13 13 13 13 13 13 13 13 13 13 13 13 13 13 13 13 13 13 13 13 13 13 13 13 13 13 13 13 13 13 13
15 15 15 14 14 14 14 14 14 14 13 13 13 13 13 13 13 13 12 13 13 13 13 12 12 12 13 13 13 13 13 12 12 12 12 12 12 13 12 13 12 12 12
15 15 15 14 14 14 14 14 14 14 13 13 13 13 13 13 13 13 12 12 12 13 13 12 12 12 12 12 12 12 12 12 12 12 12 12 12 12 12 12 12 12 12
15 15 14 14 14 14 14 14 14 14 13 13 13 13 13 13 13 13 13 12 12 12 12 12 12 12 12 12 12 12 12 12 12 12 12 12 12 12 12 12 12 12 12
15 14 14 14 14 14 14 14 14 14 13 13 13 13 13 13 12 12 12 12 12 12 12 12 12 12 12 12 12 12 12 12 12 12 12 12 12 12 12 12 12 12 12
14 14 14 14 14 14 14 13 13 13 13 13 13 13 12 12 12 12 12 12 12 12 12 12 12 12 12 12 12 12 12 12 12 12 11 11 11 11 11 11 12 12 11
14 14 14 14 14 13 13 13 13 13 13 13 13 13 12 12 12 12 12 12 12 12 12 12 12 12 12 12 12 12 12 11 11 11 11 11 11 11 11 11 11 11 11
14 14 14 14 13 13 13 13 13 13 13 13 13 13 12 12 12 12 12 12 12 12 12 12 12 12 12 12 12 12 11 11 11 11 11 11 11 11 11 11 11 11 11
13 13 13 13 13 13 13 13 13 13 13 13 13 12 12 12 12 12 12 12 12 12 12 12 12 12 12 11 11 11 11 11 11 11 11 11 11 11 11 11 11 11 11
13 13 13 13 13 13 12 12 12 12 12 12 12 12 12 12 12 12 12 12 12 12 11 11 12 11 11 11 11 11 11 11 11 11 10 10 10 10 11 11 11 11 10
13 13 13 13 12 12 12 12 12 12 12 12 12 12 12 12 12 12 12 11 11 11 11 11 11 11 11 11 11 11 11 11 10 10 10 10 10 10 10 10 10 10 10
13 12 12 12 12 12 12 12 12 12 12 12 12 12 12 12 12 11 11 11 11 11 11 11 11 11 11 11 11 11 10 10 10 10 10 10 10 10 10 10 10 10 10
12 12 12 12 11 11 11 11 11 11 11 11 11 11 11 11 11 11 11 11 11 11 11 11 11 11 11 11 10 10 10 10 10 10 10 10 10 10 10 10 10 10 10
12 12 11 11 11 11 11 11 11 11 11 11 11 11 11 11 11 11 11 11 11 11 11 10 10 10 10 10 10 10 10 10 10 10 10 10 10 10 10 9 9 9 9
11 11 11 11 11 11 10 10 10 10 10 10 11 11 10 11 10 10 10 10 10 10 10 10 10 10 10 10 10 10 10 10 10 9 9 9 9 9 9 9 9 9 9
11 11 11 10 10 10 10 10 10 10 10 10 10 10 10 10 10 10 10 10 10 10 10 10 10 10 10 10 9 9 9 9 9 9 9 9 9 9 9 9 9 9 9
11 10 10 10 10 10 10 10 10 10 10 10 10 10 10 9 9 9 10 10 10 10 10 10 10 10 9 9 9 9 9 9 9 9 9 8 8 8 8 9 8 8 8
Wind_Speed
3 3 4 5 5 5 5 4 5 6 6 6 7 7 7 7 8 8 9 12 12 11 11 10 10 10 11 10 10 10 11 11 10 10 10 10 10 9 8 8 8 8 8
3 3 3 3 4 4 4 4 4 4 4 5 5 6 6 6 7 8 8 10 11 11 11 10 9 10 10 10 10 10 10 10 10 10 10 10 9 9 8 7 7 7 7
4 3 2 2 3 4 5 5 5 5 4 5 5 5 5 6 6 7 8 8 9 10 11 10 9 8 9 10 10 9 9 9 9 9 9 9 9 9 9 7 7 7 7
4 3 2 2 3 4 4 3 3 4 4 4 4 4 4 5 6 6 7 8 8 8 10 11 10 9 8 9 8 8 8 8 8 9 9 9 9 9 9 8 7 7 7
4 4 2 2 3 3 3 3 3 2 3 3 3 3 4 4 4 6 6 7 8 8 8 9 10 10 9 9 8 8 7 7 7 8 8 8 8 8 8 8 8 7 7
3 4 3 3 3 3 3 3 3 3 2 2 3 4 3 3 4 4 4 5 6 7 7 8 8 8 9 9 9 8 8 7 7 7 7 7 7 7 7 7 8 7 7
3 3 3 2 2 2 2 3 2 3 2 2 3 3 4 3 3 3 3 3 5 6 6 7 6 6 6 8 8 8 8 7 6 6 6 6 6 6 6 7 6 7 7
3 3 3 2 2 2 2 2 3 2 1 2 2 2 2 4 3 3 3 2 3 4 4 5 5 5 5 6 6 6 6 6 6 6 6 6 6 6 6 6 6 6 7
2 3 3 3 2 2 2 2 2 3 1 1 2 2 2 1 2 3 3 2 3 3 3 3 4 4 4 4 5 5 5 6 5 5 6 6 6 5 5 5 5 5 5
2 3 3 3 2 2 2 2 2 2 3 1 1 1 1 2 1 2 3 3 3 2 3 3 3 3 3 3 4 4 4 4 4 4 5 5 5 5 5 5 4 4 4
1 2 3 3 2 2 2 2 2 2 2 2 2 1 1 2 1 1 2 3 3 2 2 2 2 2 3 3 3 3 3 3 3 4 4 5 5 4 5 5 4 4 4
0 1 2 2 2 2 2 2 2 2 2 2 2 2 2 2 1 2 2 2 3 3 3 2 2 2 3 3 3 3 3 2 3 3 3 4 4 5 4 4 4 4 4
1 2 2 2 2 2 2 2 2 2 3 3 3 2 2 2 2 2 2 1 2 3 2 2 2 2 2 2 3 3 2 2 2 2 3 3 4 4 4 4 4 4 3
3 2 2 2 2 2 2 2 2 2 2 3 3 3 2 2 2 2 3 2 0 2 2 3 2 2 2 2 3 3 2 2 1 1 2 2 3 3 3 4 3 3 4
2 2 2 2 2 2 2 2 2 2 2 3 3 3 2 2 2 2 2 3 3 2 3 3 2 2 2 2 2 1 2 2 1 1 1 2 2 2 3 3 3 3 3
2 2 2 2 2 2 2 2 2 2 2 3 3 3 3 2 2 2 2 2 3 3 3 3 3 2 2 2 1 1 1 1 1 1 1 1 1 2 2 3 3 3 3
2 3 3 2 2 2 2 2 3 2 3 3 3 3 4 3 3 2 2 2 3 3 3 3 2 1 1 1 1 0 1 1 1 1 0 0 1 1 2 2 3 3 2
3 3 3 2 3 3 3 3 3 3 4 4 4 4 4 3 3 3 3 4 3 3 3 3 2 1 1 1 0 0 0 1 1 1 1 1 1 1 1 2 2 2 1
3 2 2 3 3 3 3 3 4 4 4 5 5 5 5 4 4 4 4 4 3 3 2 3 2 1 1 0 0 0 0 1 1 2 1 1 2 2 2 2 2 1 1
3 3 3 4 4 3 3 3 3 3 4 4 5 5 5 6 6 5 5 5 4 3 2 2 2 1 1 0 1 1 1 1 1 1 1 1 2 3 3 3 3 2 2
4 4 3 3 3 3 3 3 4 4 4 3 3 4 5 6 6 5 4 4 5 4 3 2 2 1 1 1 2 2 1 1 2 1 1 1 1 2 3 3 3 3 2
4 3 3 3 3 4 4 5 4 3 3 3 4 4 5 6 7 7 7 6 6 6 5 4 3 4 4 3 2 2 2 1 2 1 1 2 1 2 3 3 3 3 3
4 4 4 4 5 6 6 6 6 4 4 4 4 4 4 4 5 4 5 5 6 7 8 6 6 6 5 6 5 4 4 3 3 2 1 2 2 2 3 3 4 3 3
4 5 5 5 5 6 7 7 7 5 4 5 5 5 5 4 4 3 3 3 4 5 6 5 7 6 5 5 6 6 4 2 0 1 2 2 2 2 3 4 4 3 3
5 5 4 5 5 6 8 8 6 3 4 5 5 4 5 5 6 4 4 4 3 3 3 4 4 4 4 6 6 4 3 2 1 2 2 2 2 1 2 2 3 2 2
6 5 5 5 5 6 7 8 7 4 4 4 3 3 5 5 6 5 4 5 5 4 2 2 1 1 1 3 6 6 5 4 2 2 3 3 2 1 1 1 1 2 2
Wind_Direction
67 55 51 50 50 58 61 59 59 58 55 52 53 55 51 48 44 43 41 47 53 56 60 64 65 65 66 66 68 68 69 69 67 66 63 62 61 62 65 66 65 66 65
87 75 60 51 49 55 66 74 70 64 58 58 50 48 49 48 47 46 43 41 46 49 53 59 63 65 64 63 67 68 68 69 66 65 63 61 59 55 57 63 65 68 66
101 91 78 60 51 61 70 73 69 66 60 55 46 41 46 46 46 43 42 40 40 43 46 51 55 59 60 64 65 66 65 67 67 66 64 62 58 53 53 58 60 64 67
111 101 95 76 73 75 76 70 63 61 54 47 39 31 35 42 43 44 43 40 39 38 41 43 46 49 51 58 61 61 61 62 67 66 63 59 56 52 51 53 55 56 61
119 113 105 90 83 79 70 81 65 72 70 50 42 36 28 33 34 44 41 39 40 40 38 38 40 42 46 49 55 56 57 61 64 66 62 56 52 49 49 49 49 49 56
120 115 107 91 90 86 71 75 80 62 73 65 57 40 28 27 35 32 27 35 36 37 38 36 35 37 41 44 49 52 55 58 60 64 62 56 53 49 48 46 46 48 56
121 117 112 102 97 100 106 104 97 81 58 60 64 29 15 26 39 25 25 32 28 29 35 32 31 35 33 35 40 48 49 49 55 59 59 53 49 47 51 49 47 48 53
123 127 126 128 117 108 97 98 102 101 72 61 95 80 14 358 4 15 18 24 13 22 26 23 26 29 29 28 30 40 42 42 55 60 58 55 51 48 50 49 47 49 51
124 124 133 133 135 137 144 143 129 123 133 48 68 118 123 246 316 340 357 6 2 9 2 8 18 15 17 21 27 34 39 41 49 55 53 53 50 44 44 44 48 49 57
120 131 135 135 141 141 148 167 145 141 145 144 60 53 131 158 151 323 332 343 347 349 339 351 359 3 9 9 16 25 36 40 39 43 46 49 48 44 42 41 51 53 61
100 125 136 134 145 155 165 159 148 157 162 164 160 134 84 63 107 161 293 321 334 322 323 323 330 344 354 355 0 13 31 42 37 34 37 44 44 41 38 42 48 48 61
83 140 148 151 160 173 182 183 175 176 177 167 168 160 157 160 183 169 219 283 301 307 313 312 316 320 333 344 342 357 17 33 37 34 30 36 37 36 33 38 37 33 43
229 225 181 180 188 197 185 174 175 188 186 184 189 195 191 196 172 165 165 224 287 303 311 306 293 296 313 328 324 331 347 3 23 35 37 36 38 33 24 31 26 23 24
217 209 185 188 193 185 183 178 190 206 197 203 207 199 199 210 186 178 171 162 281 311 306 283 297 272 295 299 300 320 330 333 356 27 31 32 41 33 21 22 21 16 16
214 191 178 187 195 181 176 175 206 217 204 209 213 207 212 220 202 197 182 174 169 228 269 262 274 285 286 280 283 293 304 319 336 6 18 38 36 31 21 17 11 13 18
211 192 194 195 203 192 171 166 206 221 200 224 218 208 222 227 214 199 195 196 185 188 237 253 245 271 280 291 277 246 271 314 338 339 360 18 26 16 2 3 11 13 22
213 212 213 207 211 210 197 190 210 202 208 228 230 217 230 222 215 214 201 198 198 185 228 270 252 264 241 265 337 349 313 314 323 327 339 347 15 4 352 352 359 359 4
216 216 211 214 225 226 211 202 219 220 216 224 229 225 235 224 220 217 211 214 214 205 204 242 260 252 256 232 215 147 310 297 291 300 303 292 287 301 311 326 331 336 354
218 217 208 218 233 234 223 219 218 220 224 228 226 222 230 222 230 224 220 221 222 218 203 209 242 237 264 258 65 4 358 327 301 294 281 274 279 272 277 281 282 274 294
213 218 221 227 231 232 226 220 216 218 228 239 237 230 228 219 227 223 222 220 210 198 194 197 220 215 219 227 144 189 296 304 291 306 293 276 284 284 270 266 259 252 256
223 218 219 231 236 232 233 225 214 218 224 242 253 247 240 234 229 223 227 215 197 192 192 199 212 203 211 195 212 205 226 284 287 259 301 303 308 309 300 275 260 254 258
223 215 217 221 232 246 254 235 212 215 225 234 252 262 259 244 243 236 237 222 200 195 198 201 211 216 221 214 197 192 179 182 265 239 191 280 250 274 280 266 260 264 273
222 223 226 225 237 246 247 240 229 214 219 226 235 248 262 260 245 234 241 232 223 217 202 199 210 219 212 205 188 193 199 207 227 213 166 248 250 261 274 263 258 261 267
221 224 233 235 243 256 253 246 238 220 227 235 235 233 241 256 251 231 222 232 240 235 222 212 216 220 215 198 193 195 194 188 231 221 174 211 229 251 280 284 260 252 262
227 228 230 235 243 258 258 248 231 219 236 249 246 236 231 236 248 230 204 216 240 256 240 226 227 218 211 200 185 155 159 170 229 231 193 192 214 263 270 258 269 263 272
228 231 237 237 238 250 262 249 225 214 232 249 256 250 240 240 246 223 207 208 221 237 217 213 219 130 162 187 180 182 182 185 191 221 201 182 194 164 270 268 272 285 289
Height
1535 1535 1535 1535 1535 1535 1535 1535 1535 1535 1534 1534 1534 1534 1533 1533 1533 1532 1532 1532 1531 1531 1531 1530 1530 1530 1530 1530 1530 1529 1529 1529 1529 1529 1529 1529 1529 1530 1530 1530 1530 1531 1531
1537 1537 1537 1537 1537 1537 1536 1536 1536 1536 1536 1536 1535 1535 1535 1535 1534 1534 1533 1533 1533 1532 1532 1532 1531 1531 1531 1531 1531 1530 1530 1530 1530 1530 1530 1530 1530 1530 1530 1531 1531 1531 1531
1538 1538 1538 1538 1538 1538 1538 1538 1537 1537 1537 1537 1536 1536 1536 1536 1535 1535 1535 1534 1534 1534 1533 1533 1533 1532 1532 1532 1532 1531 1531 1531 1531 1530 1530 1530 1530 1530 1531 1531 1531 1531 1531
1538 1538 1539 1538 1539 1539 1538 1538 1538 1538 1537 1537 1537 1537 1537 1536 1536 1536 1535 1535 1535 1534 1534 1533 1533 1533 1533 1533 1532 1532 1532 1532 1532 1531 1531 1531 1531 1531 1531 1531 1531 1531 1531
1539 1539 1539 1539 1539 1539 1539 1539 1539 1538 1538 1537 1537 1537 1537 1537 1537 1537 1536 1536 1535 1535 1535 1534 1534 1534 1533 1533 1533 1533 1533 1532 1532 1532 1532 1531 1531 1531 1531 1531 1531 1531 1532
1539 1540 1540 1540 1540 1539 1539 1539 1539 1539 1538 1538 1538 1538 1538 1537 1537 1537 1537 1536 1536 1536 1535 1535 1535 1534 1534 1534 1533 1533 1533 1533 1532 1532 1532 1532 1531 1531 1531 1531 1532 1532 1532
1540 1539 1539 1540 1540 1539 1539 1539 1539 1539 1538 1538 1538 1538 1538 1538 1538 1537 1537 1537 1537 1536 1535 1535 1535 1534 1534 1534 1534 1533 1533 1533 1533 1532 1532 1532 1532 1532 1531 1531 1532 1532 1532
1539 1539 1539 1539 1539 1539 1539 1539 1539 1538 1538 1538 1538 1537 1537 1539 1538 1537 1537 1537 1537 1536 1535 1535 1535 1534 1534 1534 1534 1534 1533 1533 1533 1532 1532 1532 1532 1532 1532 1531 1531 1531 1531
1538 1539 1538 1538 1538 1538 1538 1538 1538 1538 1538 1538 1538 1538 1538 1538 1537 1537 1537 1537 1536 1536 1535 1535 1534 1534 1534 1534 1533 1533 1533 1533 1533 1532 1532 1532 1531 1531 1531 1531 1531 1531 1531
1537 1537 1537 1537 1537 1537 1537 1537 1537 1537 1537 1537 1538 1538 1538 1538 1538 1537 1537 1536 1536 1535 1534 1534 1534 1533 1533 1533 1533 1533 1532 1532 1532 1532 1532 1531 1531 1531 1531 1531 1530 1530 1530
1536 1536 1536 1536 1536 1536 1536 1536 1536 1536 1536 1536 1536 1536 1537 1537 1537 1536 1535 1535 1534 1534 1534 1533 1533 1533 1532 1532 1532 1532 1532 1532 1531 1531 1531 1531 1531 1530 1530 1530 1530 1530 1530
1534 1534 1535 1535 1535 1534 1534 1534 1534 1534 1534 1535 1535 1535 1535 1535 1535 1535 1534 1533 1533 1533 1532 1532 1532 1532 1531 1531 1531 1531 1531 1530 1530 1530 1530 1530 1530 1530 1529 1529 1529 1529 1529
1532 1532 1532 1533 1533 1533 1533 1532 1532 1532 1533 1533 1533 1533 1534 1534 1534 1534 1533 1532 1531 1531 1531 1531 1531 1531 1531 1530 1530 1530 1530 1529 1529 1529 1529 1529 1529 1529 1529 1529 1528 1528 1528
1530 1530 1530 1530 1530 1530 1530 1530 1530 1530 1530 1530 1531 1531 1531 1532 1532 1532 1532 1531 1530 1530 1529 1530 1530 1530 1530 1529 1529 1529 1529 1528 1528 1528 1528 1528 1528 1528 1528 1528 1527 1527 1527
1528 1528 1528 1528 1528 1528 1528 1528 1528 1528 1528 1528 1528 1528 1529 1529 1529 1530 1530 1530 1530 1528 1528 1528 1528 1528 1528 1528 1528 1528 1528 1527 1527 1527 1527 1527 1527 1527 1526 1526 1526 1526 1525
1525 1525 1525 1525 1525 1525 1525 1525 1525 1525 1525 1525 1525 1526 1526 1526 1527 1527 1527 1527 1527 1527 1526 1525 1526 1526 1526 1526 1526 1526 1526 1526 1526 1526 1526 1526 1526 1525 1525 1525 1525 1524 1524
1522 1522 1522 1521 1521 1521 1521 1522 1522 1522 1522 1522 1522 1522 1523 1523 1523 1524 1524 1524 1525 1525 1524 1523 1523 1524 1524 1524 1524 1524 1524 1524 1524 1524 1524 1524 1524 1524 1524 1523 1523 1523 1523
1518 1518 1518 1518 1518 1518 1518 1518 1518 1518 1518 1518 1518 1518 1519 1519 1520 1520 1521 1521 1521 1522 1521 1521 1521 1521 1521 1522 1522 1522 1522 1522 1522 1522 1522 1522 1522 1522 1522 1521 1521 1521 1521
1515 1515 1515 1515 1514 1514 1514 1514 1514 1514 1514 1514 1514 1515 1515 1515 1516 1516 1517 1517 1518 1518 1518 1518 1518 1518 1518 1519 1519 1519 1520 1520 1520 1520 1520 1520 1520 1520 1520 1519 1519 1519 1519
1511 1511 1511 1511 1511 1511 1510 1510 1510 1510 1510 1510 1511 1511 1511 1511 1512 1512 1512 1513 1513 1514 1514 1514 1514 1515 1515 1515 1516 1516 1517 1517 1517 1518 1518 1518 1518 1517 1517 1517 1517 1517 1517
1506 1507 1507 1507 1507 1506 1506 1506 1506 1506 1506 1506 1506 1506 1507 1507 1508 1508 1509 1509 1509 1510 1510 1510 1511 1511 1511 1512 1512 1513 1513 1514 1515 1515 1515 1515 1515 1515 1515 1514 1514 1514 1514
1502 1502 1502 1502 1502 1502 1502 1502 1502 1502 1501 1501 1502 1502 1502 1503 1503 1504 1504 1505 1505 1505 1506 1506 1506 1507 1507 1508 1509 1510 1510 1511 1511 1512 1511 1512 1512 1512 1512 1511 1511 1511 1511
1497 1497 1497 1497 1497 1497 1497 1497 1497 1497 1497 1497 1497 1497 1498 1498 1499 1499 1500 1500 1500 1501 1501 1502 1502 1503 1504 1505 1505 1506 1507 1507 1507 1508 1508 1508 1508 1508 1509 1508 1508 1508 1508
1493 1493 1493 1493 1492 1492 1492 1492 1493 1493 1493 1493 1493 1493 1493 1494 1494 1494 1495 1495 1496 1496 1496 1497 1498 1499 1500 1501 1501 1503 1503 1504 1504 1504 1505 1504 1504 1505 1505 1505 1505 1505 1505
1487 1488 1488 1488 1487 1487 1488 1488 1488 1488 1487 1488 1488 1488 1489 1489 1490 1490 1490 1490 1491 1492 1493 1493 1494 1494 1495 1496 1497 1498 1498 1499 1499 1500 1500 1500 1500 1500 1501 1501 1501 1501 1502
1482 1483 1483 1483 1482 1482 1482 1483 1483 1482 1482 1482 1483 1483 1484 1484 1485 1485 1485 1486 1486 1487 1488 1488 1489 1490 1490 1491 1492 1493 1494 1494 1495 1495 1496 1497 1496 1497 1496 1497 1497 1498 1498